This demonstration page uses our WeatherBlox Daily Observations layout. Learn more.

Left ArrowRight Arrow

36.17497, -115.13722

Hourly Observations for April 8, 2017

Temp ( °F °C ) Dew Point ( °F °C ) Humidity (%) Winds ( mph kmh ) Pressure ( in mb ) Visibility ( mi km ) Precip ( " mm )
12:53 am 00:53 Clear 69 20.6 23 -5 17 17 SSW 17 28 29.8 1009 10 16.0934 N/A
1:53 am 01:53 Clear 68 20 22 -5.6 17 17 SSW 12 19 29.81 1009 10 16.0934 N/A
2:53 am 02:53 Clear 67 19.4 25 -3.9 20 20 WSW 14 22 29.81 1009 10 16.0934 N/A
3:53 am 03:53 Clear 65 18.3 29 -1.7 26 26 W 22 35 29.85 1011 10 16.0934 N/A
4:53 am 04:53 Mostly Clear 59 15 39 3.9 48 48 SW 3 6 29.85 1011 10 16.0934 N/A
5:53 am 05:53 Clear 60 15.6 36 2.2 41 41 SSW 14 22 29.85 1011 10 16.0934 N/A
6:53 am 06:53 Sunny 61 16.1 37 2.8 41 41 SW 15 24 29.84 1011 10 16.0934 N/A
7:53 am 07:53 Sunny 63 17.2 39 3.9 41 41 SW 21 33 29.85 1011 10 16.0934 N/A
8:53 am 08:53 Sunny 66 18.9 32 undefined 28 28 SW 18 30 29.84 1010 10 16.0934 N/A
9:53 am 09:53 Sunny 68 20 28 -2.2 22 22 W 21 33 29.84 1011 10 16.0934 N/A
10:53 am 10:53 Sunny 70 21.1 27 -2.8 20 20 SSW 22 35 29.82 1010 10 16.0934 N/A
11:53 am 11:53 Sunny 72 22.2 23 -5 16 16 SW 23 37 29.79 1009 10 16.0934 N/A
12:53 pm 12:53 Sunny 73 22.8 23 -5 15 15 SW 24 39 29.78 1009 10 16.0934 N/A
1:53 pm 13:53 Sunny 73 22.8 22 -5.6 15 15 SW 29 46 29.75 1007 10 16.0934 N/A
2:53 pm 14:53 Sunny 75 23.9 17 -8.3 11 11 WSW 25 41 29.71 1006 10 16.0934 N/A
3:53 pm 15:53 Sunny 74 23.3 18 -7.8 12 12 SW 28 44 29.71 1006 10 16.0934 N/A
4:32 pm 16:32 Sunny 73 23 18 -8 12 12 W 20 31 29.59 1002 10 16.0934 N/A
4:53 pm 16:53 Sunny 74 23.3 21 -6.1 14 14 WSW 21 33 29.68 1005 10 16.0934 N/A
5:53 pm 17:53 Sunny 71 21.7 9 -12.8 9 9 W 22 35 29.68 1005 10 16.0934 N/A
6:53 pm 18:53 Sunny 67 19.4 7 -13.9 9 9 WSW 32 52 29.7 1006 10 16.0934 N/A
7:53 pm 19:53 Clear 64 17.8 10 -12.2 12 12 W 29 46 29.75 1007 10 16.0934 N/A
8:53 pm 20:53 Clear 62 16.7 15 -9.4 16 16 W 15 24 29.82 1010 10 16.0934 N/A
9:09 pm 21:09 Clear 63 17 18 -8 17 17 NNW 23 37 29.77 1008 10 16.0934 N/A
9:53 pm 21:53 Clear 61 16.1 15 -9.4 17 17 NW 18 30 29.9 1012 10 16.0934 N/A
10:53 pm 22:53 Clear 58 14.4 14 -10 18 18 N 18 30 29.94 1014 10 16.0934 N/A
11:53 pm 23:53 Clear 57 13.9 15 -9.4 19 19 NNW 17 28 29.96 1014 10 16.0934 N/A

Powered by AerisWeather